Regional Weather Roundup
Issued by NWS

Home | Current Version | Previous Version | Graphics & Text | Print | Product List | Glossary On
Versions: 1 2 3 4 5 6 7 8 9 10 11 12 13 14 15 16 17 18 19 20 21 22 23 24 25 26 27 28 29 30 31 32 33 34 35 36 37 38 39 40 41 42 43 44 45 46 47 48 49 50
000
ASUS43 KOAX 110310
RWRNE

WEATHER ROUNDUP FOR NEBRASKA
NATIONAL WEATHER SERVICE OMAHA NE
1000 PM CDT THU JUL 10 2014

NOTES: SATELLITE DATA IS BEING USED TO AUGMENT CLOUD COVER ABOVE
       12000 FEET.
       "FAIR" INDICATES FEW OR NO CLOUDS BELOW 12,000 FEET WITH NO
       SIGNIFICANT WEATHER AND/OR OBSTRUCTIONS TO VISIBILITY.

  * THESE STATIONS DO NOT REPORT WEATHER SUCH AS RAIN...SNOW OR FOG.

NEZ001>004-019>022-054>056-110400-
NEBRASKA PANHANDLE

CITY           SKY/WX    TMP DP  RH WIND       PRES   REMARKS
SCOTTSBLUFF    CLOUDY    73  61  65 N13       29.98S
ALLIANCE       CLOUDY    66  63  90 NW16      30.01R
CHADRON        RAIN      68  66  93 SW12      29.98R FOG
KIMBALL        RAIN      69  60  75 N15G25    30.01R
SIDNEY         CLOUDY    78  53  41 E8        29.95R
$$

NEZ057>060-069>072-079>082-110400-
SOUTHWEST NEBRASKA

CITY           SKY/WX    TMP DP  RH WIND       PRES   REMARKS
NORTH PLATTE   PTCLDY    78  66  66 SE9       29.90R
IMPERIAL       PTCLDY    76  65  68 SE10      29.91R
LEXINGTON      CLEAR     77  68  74 SE13      29.92R
MCCOOK         CLEAR     78  69  73 SE12      29.91R
OGALLALA       CLOUDY    80  63  56 SE9G16    29.90R
$$

NEZ005>010-023>029-035>040-094-110400-
NORTH CENTRAL NEBRASKA

CITY           SKY/WX    TMP DP  RH WIND       PRES   REMARKS
VALENTINE      PTCLDY    80  68  66 S21       29.88R THUNDER
AINSWORTH      CLEAR     77  66  69 S15       29.90R
BROKEN BOW     PTCLDY    76  66  71 SE12      29.92R
O`NEILL        PTCLDY    77  65  65 S13       29.92R
ORD            MOCLDY    75  66  73 SE9       29.92R
THEDFORD       CLOUDY    80  69  68 S13       29.93R
$$

NEZ041-046>049-061>064-073>077-083>087-110400-
SOUTH CENTRAL NEBRASKA

CITY           SKY/WX    TMP DP  RH WIND       PRES   REMARKS
GRAND ISLAND   CLEAR     76  65  68 SE16      29.95R
AURORA         CLEAR     74  67  77 SE9       29.96R
HASTINGS       CLEAR     76  63  64 SE12      29.95R
HEBRON         CLEAR     77  64  65 SE9       29.97R
HOLDREGE       CLEAR     75  66  74 SE9       29.94R
KEARNEY *      CLEAR     75  64  69 SE13      29.94R
YORK           CLEAR     73  68  83 SE10      29.97R
$$

NEZ011>018-030>034-042>045-110400-
NORTHEAST NEBRASKA

CITY           SKY/WX    TMP DP  RH WIND       PRES   REMARKS
NORFOLK        CLEAR     76  66  71 S12       29.94R
ALBION         PTCLDY    74  65  73 SE10      29.95R
BLAIR          CLEAR     76  64  67 SE15      29.99R
FREMONT        CLEAR     78  66  66 SE12G17   29.98R
TEKAMAH        CLEAR     77  66  68 SE14      29.97R
WAYNE          CLEAR     76  67  73 S9        29.96R
$$

NEZ050>053-065>068-078-088>093-110400-
SOUTHEAST NEBRASKA

CITY           SKY/WX    TMP DP  RH WIND       PRES   REMARKS
LINCOLN        CLEAR     79  63  57 SE15      29.99R
OMAHA EPPLEY   PTCLDY    77  64  64 SE18      29.98S
BEATRICE       CLEAR     73  65  74 SE7       29.99R
FALLS CITY     CLEAR     74  67  78 SE9       30.01R
NEBRASKA CITY  CLEAR     73  66  77 SE10      30.01R
PLATTSMOUTH    CLEAR     75  64  69 SE12      30.01R
$$

NEZ044-045-051>053-067-110400-
OMAHA AREA

CITY           SKY/WX    TMP DP  RH WIND       PRES   REMARKS
OMAHA EPPLEY   PTCLDY    77  64  64 SE18      29.98S
BLAIR          CLEAR     76  64  67 SE15      29.99R
FREMONT        CLEAR     78  66  66 SE12G17   29.98R
MILLARD        CLEAR     76  67  73 SE13      29.99R
OFFUTT AFB     CLEAR     74  69  84 SE14      29.99S
PLATTSMOUTH    CLEAR     75  64  69 SE12      30.01R
WAHOO          FAIR      75  65  71 SE9       29.98R
$$



USA.gov is the U.S. government's official web portal to all federal, state and local government web resources and services.